GW1230 Weather Reports


time (UTC)temp
F
wind
direction
speed
knots
gust
knots
rain 1hr
in
rain 24hr
in
rain mn
in
humidity
%
barometer
mb
20260504195352 73 208 4.3 6.1 0.00 0.00 0.00 53 1010.6
20260504194849 73 249 7.0 7.8 0.00 0.00 0.00 53 1010.5
20260504194345 73 254 6.1 7.0 0.00 0.00 0.00 53 1010.7
20260504193841 73 264 2.6 4.3 0.00 0.00 0.00 54 1010.3
20260504193338 74 209 3.5 6.1 0.00 0.00 0.00 51 1010.5
20260504192837 73 246 3.5 5.2 0.00 0.00 0.00 53 1010.7
20260504192335 73 249 2.6 4.3 0.00 0.00 0.00 50 1010.6
20260504191833 73 260 5.2 7.8 0.00 0.00 0.00 49 1010.5
20260504191330 72 238 6.1 7.0 0.00 0.00 0.00 50 1010.6
20260504190825 73 255 3.5 6.1 0.00 0.00 0.00 49 1010.9
20260504190322 75 246 3.5 4.3 0.00 0.00 0.00 47 1010.7
20260504185819 77 256 4.3 5.2 0.00 0.00 0.00 42 1010.6
20260504185316 75 326 1.7 2.6 0.00 0.00 0.00 41 1010.6
20260504184812 75 208 3.5 4.3 0.00 0.00 0.00 42 1010.8
20260504184308 75 245 1.7 2.6 0.00 0.00 0.00 41 1010.6
20260504183803 73 273 3.5 4.3 0.00 0.00 0.00 44 1010.7
20260504183301 74 193 2.6 4.3 0.00 0.00 0.00 42 1010.8
20260504182759 73 169 2.6 4.3 0.00 0.00 0.00 44 1010.9
20260504182255 71 281 0.9 1.7 0.00 0.00 0.00 47 1010.9
20260504181753 73 295 4.3 5.2 0.00 0.00 0.00 48 1010.9
20260504181250 71 257 2.6 2.6 0.00 0.00 0.00 50 1010.7
20260504180749 70 241 2.6 4.3 0.00 0.00 0.00 50 1011.0
20260504180247 73 280 5.2 6.1 0.00 0.00 0.00 49 1010.7
20260504175745 73 217 1.7 1.7 0.00 0.00 0.00 45 1010.8
20260504175241 73 197 3.5 4.3 0.00 0.00 0.00 46 1010.7
20260504174739 73 194 3.5 4.3 0.00 0.00 0.00 47 1010.7
20260504174237 72 279 1.7 2.6 0.00 0.00 0.00 47 1010.7
20260504173733 72 285 1.7 2.6 0.00 0.00 0.00 47 1010.8
20260504173230 70 253 2.6 2.6 0.00 0.00 0.00 51 1010.7
20260504172727 70 253 3.5 4.3 0.00 0.00 0.00 52 1010.8
20260504172223 71 244 4.3 5.2 0.00 0.00 0.00 50 1011.0
20260504171720 72 240 4.3 4.3 0.00 0.00 0.00 50 1010.8
20260504171217 71 293 0.0 0.0 0.00 0.00 0.00 50 1010.6
20260504170714 71 256 2.6 4.3 0.00 0.00 0.00 49 1010.8
20260504170211 71 227 0.9 1.7 0.00 0.00 0.00 50 1010.8
20260504160129 67 39 0.9 1.7 0.00 0.00 0.00 64 1010.7
20260504151057 62 267 0.0 0.0 0.00 0.00 0.00 73 1010.2
20260504150554 62 257 0.9 0.9 0.00 0.00 0.00 74 1010.1
20260504141020 59 22 0.9 0.9 0.00 0.00 0.00 82 1010.0
20260504140517 58 34 0.0 0.0 0.00 0.00 0.00 82 1009.9
20260504130441 56 354 0.0 0.0 0.00 0.00 0.00 83 1009.4
20260504110323 57 349 0.0 0.0 0.00 0.00 0.00 76 1009.2
20260504100240 57 341 0.0 0.0 0.00 0.00 0.00 73 1009.3
20260504081633 65 23 0.0 0.0 0.00 0.00 0.00 56 1009.1
20260504081129 65 26 0.0 0.0 0.00 0.00 0.00 56 1009.2
20260504080626 65 6 0.0 0.0 0.00 0.00 0.00 56 1009.4
20260504080123 65 21 0.0 0.0 0.00 0.00 0.00 57 1009.3
20260504050439 70 51 0.0 0.0 0.00 0.00 0.00 46 1009.2
20260504045936 70 282 0.0 0.0 0.00 0.00 0.00 46 1009.0
20260504045432 70 327 0.0 0.0 0.00 0.00 0.00 44 1009.3
20260504044928 70 342 0.0 0.0 0.00 0.00 0.00 44 1009.0
20260504044426 70 336 0.0 0.0 0.00 0.00 0.00 43 1009.3
20260504043923 70 333 0.0 0.0 0.00 0.00 0.00 44 1008.9
20260504043420 69 327 0.0 0.0 0.00 0.00 0.00 43 1009.1
20260504042917 69 322 0.0 0.0 0.00 0.00 0.00 43 1009.2
20260504042414 69 328 0.0 0.0 0.00 0.00 0.00 43 1009.0
20260504041910 70 333 0.0 0.0 0.00 0.00 0.00 42 1009.1
20260504041406 70 335 0.0 0.0 0.00 0.00 0.00 41 1009.2
20260504040903 71 4 0.0 0.0 0.00 0.00 0.00 40 1008.8
20260504040400 71 0 0.0 0.9 0.00 0.00 0.00 40 1008.9
20260504035856 71 342 0.9 0.9 0.00 0.00 0.00 40 1008.8
20260504035354 71 349 1.7 1.7 0.00 0.00 0.00 39 1009.0
20260504034850 72 319 0.9 1.7 0.00 0.00 0.00 39 1008.7
20260504034348 72 318 0.9 0.9 0.00 0.00 0.00 39 1008.9
20260504033844 72 324 0.9 0.9 0.00 0.00 0.00 39 1008.9
20260504033343 72 339 1.7 1.7 0.00 0.00 0.00 38 1008.9
20260504032839 72 330 2.6 2.6 0.00 0.00 0.00 38 1009.0
20260504032336 72 316 1.7 1.7 0.00 0.00 0.00 38 1008.8
20260504031833 72 306 2.6 4.3 0.00 0.00 0.00 39 1008.8
20260504031330 73 336 1.7 1.7 0.00 0.00 0.00 39 1008.8
20260504030826 73 330 1.7 1.7 0.00 0.00 0.00 40 1008.7
20260504030324 73 304 0.9 1.7 0.00 0.00 0.00 41 1009.0
20260504025820 73 328 1.7 1.7 0.00 0.00 0.00 41 1009.0
20260504025317 73 331 3.5 4.3 0.00 0.00 0.00 42 1008.8
20260504024814 73 326 0.9 0.9 0.00 0.00 0.00 44 1008.8
20260504024310 73 309 2.6 2.6 0.00 0.00 0.00 45 1008.9
20260504023807 74 312 1.7 2.6 0.00 0.00 0.00 44 1009.0
20260504023303 75 342 2.6 4.3 0.00 0.00 0.00 45 1008.9
20260504022759 75 323 0.9 1.7 0.00 0.00 0.00 44 1009.0
20260504022256 75 310 0.9 0.9 0.00 0.00 0.00 45 1009.1
20260504021753 75 332 2.6 4.3 0.00 0.00 0.00 44 1009.0
20260504021250 75 331 4.3 5.2 0.00 0.00 0.00 44 1008.9
20260504020747 75 330 2.6 4.3 0.00 0.00 0.00 45 1009.2
20260504020243 75 319 0.9 2.6 0.00 0.00 0.00 44 1009.2
20260504015739 75 344 1.7 2.6 0.00 0.00 0.00 45 1009.1
20260504015236 76 331 5.2 7.0 0.00 0.00 0.00 44 1009.2
20260504014732 75 298 3.5 5.2 0.00 0.00 0.00 44 1009.3
20260504014229 76 311 5.2 6.1 0.00 0.00 0.00 43 1009.2
20260504013726 76 327 1.7 2.6 0.00 0.00 0.00 43 1009.2
20260504013224 76 322 2.6 2.6 0.00 0.00 0.00 42 1009.3
20260504012720 75 326 5.2 7.0 0.00 0.00 0.00 43 1009.3
20260504012218 75 308 6.1 7.0 0.00 0.00 0.00 42 1009.4
20260504011715 75 323 5.2 6.1 0.00 0.00 0.00 41 1009.6
20260504011212 76 322 4.3 6.1 0.00 0.00 0.00 40 1009.4
20260504010708 76 335 5.2 7.8 0.00 0.00 0.00 39 1009.4
20260504010203 76 12 7.8 11.3 0.00 0.00 0.00 39 1009.8
20260504005700 75 328 5.2 7.8 0.00 0.00 0.00 40 1009.7
20260504005157 76 3 6.1 8.7 0.00 0.00 0.00 41 1009.7
20260504004655 76 10 3.5 5.2 0.00 0.00 0.00 42 1009.5
20260504004152 76 349 4.3 5.2 0.00 0.00 0.00 41 1009.7
20260504003648 76 330 5.2 6.1 0.00 0.00 0.00 43 1009.7
20260504003145 76 354 6.1 8.7 0.00 0.00 0.00 42 1009.6
20260504002642 76 353 3.5 4.3 0.00 0.00 0.00 42 1009.8
20260504002139 77 300 2.6 4.3 0.00 0.00 0.00 42 1009.7
20260504001637 77 2 5.2 7.8 0.00 0.00 0.00 42 1009.6
20260504001133 77 310 3.5 4.3 0.00 0.00 0.00 42 1009.6
20260504000630 79 326 4.3 5.2 0.00 0.00 0.00 42 1009.6
20260504000127 78 323 0.9 0.9 0.00 0.00 0.00 42 1009.9
20260503235626 78 294 2.6 5.2 0.00 0.00 0.00 44 1009.8
20260503235122 77 318 1.7 2.6 0.00 0.00 0.00 44 1009.8
20260503234620 78 311 3.5 6.1 0.00 0.00 0.00 44 1010.1
20260503234118 78 313 0.9 0.9 0.00 0.00 0.00 44 1010.0
20260503233615 77 341 2.6 2.6 0.00 0.00 0.00 44 1010.0
20260503233110 77 309 3.5 4.3 0.00 0.00 0.00 44 1010.1
20260503232607 77 342 3.5 7.0 0.00 0.00 0.00 45 1010.1
20260503232105 77 297 5.2 7.0 0.00 0.00 0.00 44 1010.3
20260503231603 79 318 3.5 4.3 0.00 0.00 0.00 43 1010.4
20260503231059 78 317 1.7 1.7 0.00 0.00 0.00 44 1010.5
20260503230555 78 19 1.7 1.7 0.00 0.00 0.00 44 1010.6
20260503230053 78 326 1.7 1.7 0.00 0.00 0.00 43 1010.5
20260503225550 77 348 6.1 7.0 0.00 0.00 0.00 44 1010.5
20260503225045 77 332 6.1 7.0 0.00 0.00 0.00 44 1010.7
20260503224543 80 261 2.6 4.3 0.00 0.00 0.00 42 1010.7
20260503224040 77 327 3.5 5.2 0.00 0.00 0.00 45 1010.9
20260503223539 77 313 3.5 5.2 0.00 0.00 0.00 44 1011.1
20260503223033 76 294 1.7 1.7 0.00 0.00 0.00 45 1011.1
20260503222532 76 338 7.8 9.6 0.00 0.00 0.00 46 1011.2
20260503222030 77 298 4.3 7.0 0.00 0.00 0.00 45 1011.0
20260503221528 76 348 6.1 7.8 0.00 0.00 0.00 45 1011.4
20260503221025 76 30 4.3 6.1 0.00 0.00 0.00 45 1011.4
20260503220521 76 326 6.1 8.7 0.00 0.00 0.00 45 1011.2
20260503220018 76 326 2.6 2.6 0.00 0.00 0.00 45 1011.5
20260503215515 75 321 1.7 2.6 0.00 0.00 0.00 48 1011.4
20260503215012 76 332 3.5 5.2 0.00 0.00 0.00 49 1011.6
20260503214510 76 339 2.6 5.2 0.00 0.00 0.00 49 1011.3
20260503214007 76 329 2.6 2.6 0.00 0.00 0.00 49 1011.5
20260503213505 76 289 3.5 5.2 0.00 0.00 0.00 49 1011.5
20260503213001 76 335 1.7 1.7 0.00 0.00 0.00 48 1011.4
20260503212459 76 309 0.9 1.7 0.00 0.00 0.00 49 1011.6
20260503211956 78 357 6.1 7.8 0.00 0.00 0.00 45 1011.5
20260503211453 77 329 5.2 7.0 0.00 0.00 0.00 42 1011.5
20260503210948 77 251 4.3 6.1 0.00 0.00 0.00 44 1011.6
20260503210445 77 348 1.7 2.6 0.00 0.00 0.00 43 1011.7
20260503205940 76 318 3.5 5.2 0.00 0.00 0.00 43 1011.8
20260503205437 77 292 2.6 4.3 0.00 0.00 0.00 41 1011.8
20260503204933 75 318 4.3 6.1 0.00 0.00 0.00 42 1011.9
20260503204431 76 299 7.8 9.6 0.00 0.00 0.00 41 1012.1
20260503203928 75 344 4.3 7.8 0.00 0.00 0.00 42 1012.0
20260503203425 77 319 0.9 0.9 0.00 0.00 0.00 41 1012.0
20260503202922 76 294 2.6 4.3 0.00 0.00 0.00 42 1012.2
20260503202420 75 32 7.8 8.7 0.00 0.00 0.00 44 1012.3
20260503201918 74 22 5.2 7.0 0.00 0.00 0.00 44 1012.2
20260503201415 75 321 6.1 8.7 0.00 0.00 0.00 44 1012.4
20260503200913 75 340 4.3 6.1 0.00 0.00 0.00 44 1012.6
20260503200409 75 285 1.7 1.7 0.00 0.00 0.00 44 1012.3
20260503195905 75 327 5.2 6.1 0.00 0.00 0.00 46 1012.6